[[{"header":{"parameterUnit":"m.s-1","parameterCategory":1,"la1":30.2991,"la2":30.254,"lo1":-89.0895,"lo2":-89.0444,"dy":0.0017,"dx":0.0017,"nx":28,"ny":28,"refTime":"2023-08-09T03:00:00:Z","depth":0,"parameterNumber":2,"parameterNumberName":"U-component_of_WINDS"},"data":[0,0,0,0,0,0,0,0,0,0,0,0,0,0,0,0,0,0,0,0,0,0,0,0,0,0,0,0,0,0,0,0,0,0,0,0,0,0,0,0,0,0,0,0,0,0,0,0,0,0,0,0,0,0,0,0,0,0,4.4422,4.4424,0,4.4578,4.4579,4.4581,4.453,4.4527,4.4524,4.452,4.4681,4.4688,4.4695,0,0,0,0,0,0,0,0,0,0,0,0,0,4.408,4.4086,4.4422,4.4424,4.4426,4.4577,4.458,4.4582,4.4531,4.4527,4.4523,4.4519,4.4678,4.4687,4.4696,0,0,0,0,0,0,0,0,0,0,0,0,0,4.4231,4.4089,4.4422,4.4419,4.442,4.4577,4.458,4.4582,4.4532,4.4527,4.4522,4.4517,4.4675,4.4686,4.4697,4.4866,0,0,4.4731,4.4736,0,0,0,0,0,0,0,0,4.4223,4.4244,4.4417,4.4419,4.4421,4.4529,4.4518,4.4678,4.4533,4.4489,4.452,4.4514,4.4634,4.4649,4.4689,4.4874,4.4881,4.4732,4.4739,4.4743,4.4747,0,0,0,0,0,0,0,4.4212,4.4237,4.4483,4.442,4.4422,4.4409,4.4425,4.4548,4.4588,4.4493,4.4489,4.4508,4.4634,4.4678,4.4692,4.4883,4.4732,4.4741,4.4748,4.4753,4.5212,4.5217,0,0,0,0,0,0,4.4201,4.4229,4.4479,4.4488,4.4307,4.442,4.4437,4.45,4.4587,4.4595,4.4513,4.4506,4.4662,4.4679,4.4698,4.49,4.4743,4.4754,4.476,4.5207,4.5213,4.5219,0,0,0,0,0,0,4.4194,4.4224,4.4472,4.4358,4.4388,4.4431,4.4501,4.4505,4.4549,4.4602,4.4609,4.455,4.4659,4.4682,4.4824,4.4904,4.4759,4.4769,4.52,4.5209,4.5216,4.5306,0,0,0,0,0,0,4.4184,4.4221,4.4286,4.4359,4.4395,4.4597,4.4506,4.4512,4.4568,4.456,4.4639,4.4647,4.4656,4.4808,4.4835,4.4917,4.4777,4.5193,4.5204,4.5214,4.5296,4.5316,4.5334,0,0,0,0,0,4.4172,4.4306,4.429,4.432,4.4477,4.4601,4.4621,4.463,4.4575,4.464,4.4674,4.4644,4.4892,4.4823,4.4853,4.494,4.5188,4.5201,4.5213,4.5288,4.5312,4.5333,0,0,0,0,0,0,4.4242,4.4316,4.4299,4.4461,4.4525,4.4593,4.4675,4.4656,4.4738,4.4727,4.4734,4.4752,4.4897,4.4933,4.4855,4.5107,4.5032,4.5051,4.5078,4.5102,4.512,4.5108,4.4787,0,0,0,0,0,4.4277,4.4372,4.4431,4.4568,4.4601,4.4633,4.4688,4.4688,4.4755,4.4782,4.4826,4.4893,4.4985,4.5046,4.5134,4.5301,4.5316,4.5376,4.5394,4.541,4.5426,4.5514,4.5541,4.526,4.526,4.526,0,0,4.4349,4.4401,4.446,4.4583,4.4633,4.4731,4.4656,4.4763,4.4835,4.4799,4.4935,4.4969,4.5044,4.5199,4.5269,4.5233,4.5506,4.5426,4.5437,4.5445,4.553,4.5556,4.558,4.5269,4.5267,4.5266,0,0,4.4529,4.4579,4.4697,4.4749,4.4825,4.4845,4.4873,4.4944,4.4965,4.5102,4.5075,4.5161,4.5321,4.5374,4.5422,4.5621,4.5596,4.565,4.5748,4.5834,4.5856,4.5876,4.5944,4.5969,4.5666,4.5666,4.5666,0,4.4609,4.4755,4.4761,4.4869,4.4923,4.4894,4.5013,4.5063,4.5164,4.5202,4.516,4.5358,4.5406,4.5572,4.562,4.5661,4.5692,4.564,4.5852,4.5872,4.589,4.5956,4.5982,4.5672,4.5671,4.567,4.567,0,4.4848,4.495,4.5036,4.5134,4.5198,4.5311,4.5333,4.5398,4.5392,4.5416,4.5555,4.5611,4.5709,4.5749,4.5746,4.5914,4.5889,4.585,4.5774,4.5923,4.5984,4.601,4.568,4.5678,4.5676,4.5675,0,0,4.5078,4.5175,4.5207,4.5249,4.5331,4.5409,4.5521,4.5616,4.567,4.5741,4.5833,4.5968,4.5932,4.5986,4.5989,4.6065,4.6216,4.6016,4.6018,4.6049,4.6402,4.6429,4.6458,4.62,4.6205,4.6209,4.6395,0,4.5263,4.5459,4.5466,4.5644,4.5737,4.5709,4.5806,4.5866,4.5892,4.5974,4.6002,4.6096,4.6043,4.6075,4.6149,4.6181,4.6286,4.6168,4.6285,4.6289,4.6265,4.6491,4.652,4.6693,4.6419,4.6423,4.6426,0,4.5506,4.5582,4.5769,4.5835,4.5874,4.5961,4.6048,4.6127,4.6194,4.6207,4.6267,4.6257,4.637,4.6292,4.6447,4.6366,4.6415,4.6438,4.6444,4.6454,4.6365,4.6504,4.6749,4.6774,4.6465,4.6462,4.6459,0,4.5651,4.5802,4.5932,4.597,4.6051,4.6112,4.6149,4.6211,4.6266,4.6342,4.6378,4.6467,4.6515,4.6583,4.6597,4.6539,4.6751,4.6674,4.6764,4.6763,4.6808,4.6805,4.7062,4.6843,4.6843,4.6842,4.6842,0,4.5856,4.5971,4.5998,4.6079,4.6206,4.6213,4.6339,4.6371,4.6426,4.6511,4.6494,4.6574,4.6589,4.6673,4.6685,4.6809,4.6832,4.6845,4.6846,4.6845,4.6843,4.6875,4.6863,4.6849,4.6848,4.6846,4.6845,0,4.604,4.6063,4.6203,4.6268,4.6286,4.6377,4.6432,4.6508,4.6531,4.6639,4.6665,4.6701,4.6798,4.6819,4.6935,4.6942,4.709,4.7081,4.7067,4.7066,4.7153,4.7143,4.7437,4.7475,4.7234,4.7236,4.7238,0,4.6169,4.6256,4.6329,4.6385,4.6424,4.6514,4.657,4.6581,4.664,4.6721,4.6788,4.6883,4.6959,4.7115,4.7151,4.7239,4.723,4.7327,4.7243,4.7239,4.7229,4.7222,4.723,4.7343,4.7345,4.7347,4.7349,0,4.6393,4.64,4.6482,4.6567,4.6635,4.6703,4.6768,4.6814,4.6833,4.6901,4.6999,4.7058,4.7175,4.7269,4.7356,4.7393,4.7374,4.7375,4.74,4.7399,4.7386,4.7392,4.7108,4.7368,4.7366,4.7365,4.7364,4.7363,4.6552,4.6627,4.669,4.6781,4.683,4.6891,4.6965,4.6996,4.7078,4.7174,4.7175,4.7282,4.7345,4.746,4.7502,4.7586,4.7555,4.7592,4.7601,4.7609,4.7616,4.7375,4.7602,4.7602,4.7601,4.7601,4.76,0,4.6774,4.6812,4.6896,4.6986,4.7057,4.7033,4.7103,4.7164,4.7258,4.7318,4.7393,4.7505,4.7595,4.7638,4.7727,4.7785,4.7778,4.7808,4.7803,4.7811,4.7639,4.7608,4.7812,4.7812,4.7812,4.7812,4.7812,4.7812,4.6897,4.7022,4.7036,4.7185,4.7223,4.7327,4.7368,4.7424,4.7471,4.7597,4.7671,4.7698,4.7751,4.7844,4.7925,4.7935,4.7968,4.8001,4.8007,4.7845,4.7824,4.7803,4.7773,4.8009,4.8009,4.8171,4.8173,4.8174]},{"header":{"parameterUnit":"m.s-1","parameterCategory":1,"la1":30.2991,"la2":30.254,"lo1":-89.0895,"lo2":-89.0444,"dy":0.0017,"dx":0.0017,"nx":28,"ny":28,"refTime":"2023-08-09T03:00:00:Z","depth":0,"parameterNumber":3,"parameterNumberName":"V-component_of_WINDS"},"data":[0,0,0,0,0,0,0,0,0,0,0,0,0,0,0,0,0,0,0,0,0,0,0,0,0,0,0,0,0,0,0,0,0,0,0,0,0,0,0,0,0,0,0,0,0,0,0,0,0,0,0,0,0,0,0,0,0,0,0.8804,0.8804,0,0.8816,0.8816,0.8816,0.8773,0.8772,0.8771,0.877,0.8783,0.8785,0.8786,0,0,0,0,0,0,0,0,0,0,0,0,0,0.8745,0.8747,0.8804,0.8804,0.8805,0.8816,0.8816,0.8816,0.8774,0.8772,0.877,0.8769,0.8783,0.8785,0.8787,0,0,0,0,0,0,0,0,0,0,0,0,0,0.8766,0.8747,0.8804,0.8785,0.8783,0.8816,0.8816,0.8816,0.8774,0.8772,0.877,0.8768,0.8782,0.8785,0.8787,0.884,0,0,0.8794,0.8795,0,0,0,0,0,0,0,0,0.8764,0.8768,0.8787,0.8786,0.8784,0.8791,0.88,0.8824,0.8774,0.8777,0.877,0.8767,0.8788,0.8789,0.8796,0.8841,0.8841,0.8794,0.8796,0.8797,0.8797,0,0,0,0,0,0,0,0.8763,0.8767,0.8809,0.8788,0.8786,0.8775,0.8776,0.8805,0.8793,0.8777,0.8774,0.8776,0.8786,0.8794,0.8796,0.8842,0.8794,0.8796,0.8798,0.8799,0.8929,0.8931,0,0,0,0,0,0,0.8764,0.8766,0.8809,0.8809,0.8769,0.8778,0.8779,0.8791,0.8793,0.8791,0.8777,0.8774,0.8791,0.8793,0.8796,0.8858,0.8797,0.8799,0.88,0.8927,0.893,0.8932,0,0,0,0,0,0,0.8763,0.8768,0.8808,0.8787,0.8791,0.8781,0.8795,0.8792,0.8799,0.8793,0.8791,0.8787,0.8789,0.8793,0.8829,0.8858,0.88,0.8802,0.8925,0.8928,0.8931,0.8983,0,0,0,0,0,0,0.8761,0.8768,0.8788,0.8788,0.8792,0.8841,0.8797,0.8794,0.8803,0.8799,0.8802,0.88,0.8788,0.8826,0.8831,0.886,0.8804,0.8922,0.8926,0.893,0.8978,0.8987,0.8995,0,0,0,0,0,0.876,0.8803,0.879,0.8795,0.8817,0.8843,0.8845,0.883,0.8806,0.8826,0.8822,0.88,0.8854,0.883,0.8836,0.8866,0.892,0.8925,0.893,0.8975,0.8985,0.8994,0,0,0,0,0,0,0.8808,0.8803,0.8788,0.8832,0.8838,0.8835,0.886,0.8842,0.8855,0.8851,0.8831,0.8832,0.8872,0.8872,0.8846,0.8917,0.8883,0.8889,0.8915,0.8925,0.8933,0.8933,0.8806,0,0,0,0,0,0.8824,0.8845,0.8839,0.8879,0.8882,0.8871,0.8881,0.8869,0.8874,0.8877,0.8875,0.8882,0.89,0.8913,0.8929,0.8978,0.8978,0.9001,0.9009,0.9016,0.9022,0.9047,0.9057,0.8947,0.8947,0.8947,0,0,0.8857,0.8857,0.8871,0.8888,0.8891,0.8913,0.8873,0.8898,0.8915,0.8881,0.8915,0.8914,0.892,0.8962,0.8981,0.8964,0.9052,0.9022,0.9028,0.9029,0.9053,0.9063,0.9072,0.895,0.895,0.8949,0,0,0.8929,0.893,0.8963,0.8967,0.8972,0.8964,0.8972,0.8971,0.8969,0.9002,0.8977,0.8996,0.9028,0.9033,0.904,0.9112,0.9092,0.9118,0.9161,0.9185,0.9194,0.9202,0.9227,0.9236,0.9123,0.9123,0.9124,0,0.8969,0.9001,0.8983,0.9009,0.9017,0.8987,0.902,0.9024,0.9035,0.9041,0.9022,0.906,0.9062,0.9105,0.9123,0.9129,0.9138,0.9118,0.9194,0.9202,0.9208,0.9232,0.9242,0.9127,0.9126,0.9126,0.9126,0,0.9051,0.9073,0.9099,0.9109,0.912,0.915,0.9136,0.9149,0.9135,0.9129,0.9163,0.9164,0.918,0.9189,0.9176,0.923,0.9219,0.9197,0.9163,0.9222,0.9244,0.9254,0.9131,0.913,0.9129,0.9128,0,0,0.9154,0.9152,0.9162,0.9166,0.9168,0.9185,0.9213,0.9228,0.924,0.9248,0.9271,0.9298,0.9277,0.9285,0.9272,0.9294,0.935,0.9269,0.9269,0.9284,0.9409,0.9425,0.9436,0.9337,0.9338,0.934,0.9408,0,0.9224,0.9272,0.9255,0.9304,0.9324,0.9295,0.9319,0.9323,0.9318,0.9334,0.9329,0.9348,0.9319,0.9324,0.9344,0.9339,0.9375,0.9334,0.9358,0.9359,0.9358,0.9448,0.9466,0.953,0.9417,0.9418,0.9419,0,0.9313,0.9323,0.9373,0.9371,0.9379,0.9401,0.9412,0.9429,0.9432,0.9427,0.9435,0.9417,0.9445,0.941,0.9447,0.942,0.9428,0.9427,0.9429,0.9431,0.9393,0.9452,0.955,0.956,0.9433,0.9432,0.9431,0,0.9383,0.9409,0.9442,0.9446,0.9445,0.9461,0.9461,0.9463,0.9473,0.9483,0.9489,0.9502,0.951,0.9521,0.9507,0.9483,0.9546,0.951,0.9542,0.9543,0.9558,0.9557,0.9659,0.9563,0.9563,0.9563,0.9563,0,0.9463,0.9495,0.9474,0.9494,0.9529,0.951,0.9544,0.9541,0.9543,0.9562,0.9538,0.9557,0.9537,0.9554,0.9544,0.9576,0.958,0.9576,0.9573,0.9579,0.9579,0.9584,0.958,0.9565,0.9565,0.9564,0.9564,0,0.9547,0.9535,0.9569,0.9564,0.9564,0.9589,0.9585,0.9604,0.9597,0.9621,0.9626,0.9615,0.9633,0.962,0.9639,0.9632,0.9674,0.9665,0.9673,0.967,0.9703,0.97,0.9812,0.9826,0.9722,0.9723,0.9723,0,0.9599,0.9623,0.962,0.9631,0.9633,0.9651,0.966,0.9641,0.9652,0.9657,0.9676,0.9692,0.9704,0.9735,0.9728,0.9742,0.9733,0.9771,0.9735,0.974,0.9734,0.9732,0.9735,0.9779,0.978,0.9781,0.9782,0,0.9693,0.9685,0.9699,0.971,0.9722,0.973,0.9736,0.9747,0.9728,0.9741,0.9759,0.9769,0.9787,0.9804,0.9815,0.9815,0.9796,0.9793,0.9801,0.9807,0.9811,0.9809,0.9693,0.9791,0.979,0.9789,0.9789,0.9789,0.9762,0.9782,0.9782,0.9799,0.9801,0.9807,0.9824,0.9819,0.9833,0.9846,0.9835,0.9857,0.9859,0.9872,0.9875,0.9891,0.9876,0.9888,0.9891,0.9894,0.9898,0.9808,0.9893,0.9893,0.9893,0.9893,0.9892,0,0.9854,0.9853,0.9868,0.9877,0.989,0.9869,0.9875,0.9887,0.9906,0.9909,0.9921,0.9942,0.9957,0.9952,0.9965,0.998,0.9971,0.9984,0.9983,0.9983,0.9912,0.9903,0.9991,0.9991,0.9991,0.9991,0.9991,0.9991,0.9904,0.9935,0.9927,0.9959,0.9958,0.9978,0.9983,0.9989,0.9991,1.0015,1.0028,1.0023,1.0023,1.0036,1.005,1.0047,1.0054,1.007,1.0065,0.9998,0.9988,0.9979,0.9971,1.0071,1.0071,1.0134,1.0135,1.0135]}]]